Voltar ao catálogo

COSMOS 1275 DEB

AtivoPO
NORAD 42205·DEBRIS·🇷🇺 Russia

Lançado Jun 4, 1981 de Plesetsk Cosmodrome

Loading…

Próximas Passagens (próximas 24 horas)

TLE

EnvelhecendoSource: Space-Track

Época: Sep 7, 2026, 17:12 UTC

1 42205U 81053TV  26250.71685045  .00000693  00000-0  66088-3 0  9990
2 42205  83.0316 252.7528 0113616 110.1658 251.1763 13.76345911640080

Acompanhe COSMOS 1275 DEB em tempo real com AllMySat

Download on the App Store